Weather History for New York JFK, NY

Change the Weather History Date:

Monday, February 4, 2013

  Actual Average Record
Temperature  
Mean Temperature 28 °F 33 °F  
Max Temperature 32 °F 40 °F 68 °F (1991)
Min Temperature 24 °F 27 °F 9 °F (1996)
Degree Days  
Heating Degree Days 37 32  
Month to date heating degree days 150 128  
Since 1 July heating degree days 2620 2798  
Cooling Degree Days 0 0  
Month to date cooling degree days 0 0  
Year to date cooling degree days 0 0  
Moisture  
Dew Point 9 °F    
Average Humidity 51    
Maximum Humidity 69    
Minimum Humidity 33    
Precipitation  
Precipitation 0.00 in 0.09 in 1.93 in (1961)
Month to date precipitation 0.05 0.36  
Year to date precipitation 2.44 3.52  
Snow  
Snow 0.00 in 0.30 in 7.00 in (1995)
Month to date snowfall 0.8 1.2  
Since 1 July snowfall 6.6 12.4  
Snow Depth 0.00 in    
Sea Level Pressure  
Sea Level Pressure 29.95 in    
Wind  
Wind Speed 16 mph (West)    
Max Wind Speed 28 mph    
Max Gust Speed 36 mph    
Visibility 10 miles    
Events      
T = Trace of Precipitation, MM = Missing Value Source: NWS Daily Summary

Daily Weather History Graph

Daily Weather History Graph

Search for Another Location

Airport:

Trip Planner

Search our weather history database for the weather conditions in past years. The results will help you decide how hot, cold, wet, or windy it might be!

Date:

Astronomy

Feb. 04, 2013 Rise Set
Actual Time 7:01 AM EST 5:16 PM EST
Civil Twilight 6:32 AM EST 5:45 PM EST
Nautical Twilight 6:00 AM EST 6:18 PM EST
Astronomical Twilight 5:28 AM EST 6:50 PM EST
Moon 1:34 AM EST (2/4) 11:38 AM EST (2/4)
Length of Visible Light 11h 12m
Length of Day
10h 15m
Last Quarter, 37% of the Moon is Illuminated
Feb 4
Last Quarter
Feb 10
New
Feb 17
First Quarter
Feb 25
Full
Mar 4
Last Quarter

Hourly Weather History & Observations

Time (EST) Temp. Windchill Dew Point Humidity Pressure Visibility Wind Dir Wind Speed Gust Speed Precip Events Conditions
12:51 AM 28.9 °F 16.9 °F 19.9 °F 69% 29.82 in 10.0 mi West 17.3 mph - N/A   Overcast
1:51 AM 28.0 °F 15.3 °F 17.1 °F 63% 29.83 in 10.0 mi West 18.4 mph 25.3 mph N/A   Mostly Cloudy
2:51 AM 27.0 °F 13.9 °F 12.9 °F 56% 29.85 in 10.0 mi WNW 18.4 mph 27.6 mph N/A   Scattered Clouds
3:51 AM 26.1 °F 13.6 °F 10.0 °F 51% 29.86 in 10.0 mi WNW 16.1 mph 27.6 mph N/A   Partly Cloudy
5:51 AM 24.1 °F 11.0 °F 8.1 °F 51% 29.91 in 10.0 mi WNW 16.1 mph 23.0 mph N/A   Clear
6:51 AM 24.1 °F 10.6 °F 7.0 °F 48% 29.95 in 10.0 mi WNW 17.3 mph 27.6 mph N/A   Scattered Clouds
7:51 AM 25.0 °F 13.1 °F 8.1 °F 49% 29.97 in 10.0 mi West 13.8 mph 20.7 mph N/A   Partly Cloudy
8:51 AM 26.1 °F 13.1 °F 8.1 °F 47% 29.98 in 10.0 mi West 17.3 mph - N/A   Partly Cloudy
9:51 AM 27.0 °F 13.5 °F 6.1 °F 41% 29.99 in 10.0 mi West 19.6 mph 29.9 mph N/A   Scattered Clouds
10:51 AM 28.9 °F 18.2 °F 6.1 °F 38% 29.99 in 10.0 mi WNW 13.8 mph - N/A   Scattered Clouds
11:51 AM 30.9 °F 19.8 °F 6.1 °F 35% 29.97 in 10.0 mi West 16.1 mph 26.5 mph N/A   Scattered Clouds
12:51 PM 32.0 °F 20.5 °F 7.0 °F 35% 29.96 in 10.0 mi West 18.4 mph 28.8 mph N/A   Mostly Cloudy
1:51 PM 30.9 °F 18.1 °F 8.1 °F 38% 29.94 in 10.0 mi West 21.9 mph 27.6 mph N/A   Mostly Cloudy
2:51 PM 30.9 °F 20.2 °F 6.1 °F 35% 29.93 in 10.0 mi West 15.0 mph 27.6 mph N/A   Mostly Cloudy
3:51 PM 30.0 °F 17.9 °F 6.1 °F 36% 29.94 in 10.0 mi West 18.4 mph 27.6 mph N/A   Mostly Cloudy
4:51 PM 28.9 °F 16.1 °F 6.1 °F 38% 29.96 in 10.0 mi West 19.6 mph 25.3 mph N/A   Scattered Clouds
5:51 PM 28.9 °F 15.4 °F 6.1 °F 38% 29.97 in 10.0 mi West 21.9 mph 26.5 mph N/A   Scattered Clouds
6:51 PM 28.9 °F 18.2 °F 7.0 °F 40% 29.99 in 10.0 mi West 13.8 mph - N/A   Scattered Clouds
7:51 PM 28.0 °F 17.0 °F 9.0 °F 45% 29.99 in 10.0 mi WSW 13.8 mph - N/A   Mostly Cloudy
8:51 PM 27.0 °F 18.0 °F 10.0 °F 49% 29.99 in 10.0 mi West 9.2 mph - N/A   Mostly Cloudy
9:51 PM 28.9 °F 21.1 °F 10.9 °F 47% 29.99 in 10.0 mi West 8.1 mph - N/A   Overcast
10:51 PM 28.9 °F 21.9 °F 12.0 °F 49% 29.99 in 10.0 mi WSW 6.9 mph - N/A   Overcast
11:51 PM 28.9 °F 20.4 °F 16.0 °F 58% 29.99 in 10.0 mi SW 9.2 mph - N/A   Overcast